Wind_Speed
3 6 5 3 3 4 4 7 7 8 10 11 12 12 12 12 11 11 10 10 9 9 7 6 6 6 6 7 5 5 5 5 7 9 10 10 10 9 8 7 5 6 5
3 6 4 5 5 5 5 5 7 9 11 11 12 13 13 13 12 12 13 13 12 10 8 7 7 6 5 5 4 4 3 4 6 7 8 8 9 9 8 7 5 5 4
4 5 7 5 3 3 2 3 5 9 11 12 13 14 16 15 15 15 16 15 14 13 11 10 9 8 7 6 4 2 2 3 5 7 6 6 7 7 7 5 4 4 4
2 3 4 2 1 2 2 2 3 7 11 13 14 16 18 18 18 18 18 17 17 15 14 13 12 10 9 7 6 5 3 1 3 4 5 6 5 5 6 6 4 1 4
1 3 2 1 2 2 3 3 5 8 11 14 15 18 18 20 21 22 21 20 18 18 17 15 13 12 10 9 8 7 4 2 2 1 2 4 3 5 7 8 6 2 3
2 2 2 2 3 5 5 6 6 8 12 15 17 19 20 22 22 24 24 22 20 19 17 17 16 15 13 11 10 9 6 4 3 3 1 3 5 7 8 7 5 3 2
4 3 3 5 7 8 7 8 9 9 11 15 19 21 22 23 24 26 25 25 23 22 20 19 19 17 15 14 13 11 8 7 6 4 1 3 4 7 6 3 3 2 3
6 6 8 7 7 9 10 10 11 13 13 15 18 20 23 25 26 28 27 26 25 23 22 20 20 19 18 16 16 13 11 9 8 6 4 3 3 6 3 2 2 2 3
9 10 10 9 10 11 12 12 14 15 15 15 17 20 24 26 27 28 29 28 26 26 24 22 21 21 21 20 18 16 14 13 11 8 6 5 3 3 2 2 4 5 6
11 12 11 10 10 12 12 12 14 15 15 16 18 22 25 27 29 30 31 30 28 27 25 24 22 22 22 21 20 18 16 16 15 12 9 5 4 4 3 6 7 9 9
18 17 16 15 15 15 16 16 16 18 19 19 21 23 26 29 31 33 33 31 31 30 28 26 25 25 24 22 21 20 19 18 17 15 11 8 6 5 6 7 9 9 8
20 22 21 21 20 20 20 19 20 20 22 23 24 25 27 29 32 34 33 33 32 32 33 30 29 27 25 25 25 24 23 21 20 17 14 12 10 7 6 8 10 10 8
20 20 23 24 23 23 23 23 23 23 25 24 24 25 28 32 34 36 35 32 31 34 36 36 34 32 29 27 27 26 25 23 21 19 16 13 12 9 8 10 12 11 9
20 21 20 20 23 24 24 25 25 25 25 25 27 27 29 32 36 34 33 33 34 34 36 39 37 35 32 28 28 27 27 26 23 21 19 16 14 13 13 13 13 12 11
21 20 18 21 21 21 21 21 22 25 26 26 28 29 27 28 31 34 36 35 36 35 39 39 40 39 36 32 33 31 30 30 27 25 22 20 16 16 11 13 14 13 13
28 27 25 24 24 25 27 26 26 27 27 28 29 32 28 29 29 32 38 37 40 41 42 40 41 40 39 37 36 35 32 34 31 28 25 23 20 17 14 14 15 14 13
29 31 30 31 30 30 28 28 29 30 31 32 34 33 31 29 32 31 35 39 44 45 43 42 44 44 45 42 39 38 36 38 35 32 29 26 24 21 15 14 16 16 16
33 31 31 34 34 34 32 32 33 34 35 35 37 36 35 35 35 32 35 37 40 43 24 52 42 47 48 44 43 41 38 41 38 36 33 30 27 23 19 17 16 17 16
37 38 37 37 38 38 38 40 40 40 37 40 38 37 37 34 35 37 35 37 42 40 37 31 41 52 49 46 44 44 42 47 41 39 37 34 30 26 24 20 18 19 19
32 35 39 38 39 41 43 42 40 40 41 40 37 38 36 36 34 36 33 32 29 30 31 34 31 41 43 35 35 46 47 48 45 43 41 37 33 30 26 22 20 19 20
38 31 28 30 35 40 41 41 40 42 40 39 40 41 39 38 35 37 37 34 31 29 29 31 27 36 34 40 40 47 44 49 52 45 43 39 35 32 28 27 24 23 23
40 33 32 29 29 31 37 40 39 39 41 41 44 44 44 43 39 40 38 37 35 32 31 32 36 35 39 40 42 37 47 49 56 50 44 40 38 34 30 29 29 26 26
33 31 30 31 29 27 33 35 36 40 40 45 45 47 45 45 42 40 42 40 39 37 36 35 40 38 51 45 50 43 47 58 51 50 48 44 43 39 33 33 28 27 28
31 28 27 28 29 26 30 34 33 36 42 44 47 46 45 46 42 42 44 46 42 39 39 39 35 35 43 44 43 38 47 62 66 56 52 48 48 40 36 26 26 27 28
30 25 22 24 20 21 26 30 36 29 42 41 43 42 51 48 45 43 42 45 48 40 39 36 36 41 33 35 30 28 55 61 59 61 60 57 50 43 37 27 24 29 30
31 30 32 29 26 26 28 26 27 32 40 37 36 34 40 41 29 43 42 30 37 47 42 40 39 36 34 42 38 29 38 44 59 63 58 52 44 44 33 28 28 28 32
Wind_Direction
229 248 236 211 132 142 167 179 189 205 213 217 219 222 218 215 214 216 218 214 206 201 196 179 165 147 137 135 129 107 92 74 62 53 51 49 47 45 47 50 64 76 85
205 213 226 229 152 142 141 170 191 211 225 230 229 231 231 229 231 234 233 228 224 216 209 206 193 180 169 164 154 124 99 76 59 48 45 42 41 45 47 51 63 72 84
209 250 243 198 150 120 128 187 209 226 234 240 241 243 244 242 242 244 243 240 234 228 225 220 214 206 201 196 189 173 150 77 55 42 39 40 46 45 44 49 58 82 108
254 164 176 159 59 55 32 324 245 242 242 248 248 250 250 251 251 254 253 248 244 237 231 229 227 220 218 214 217 224 221 145 69 41 25 22 38 28 15 5 9 96 137
285 169 164 67 4 356 351 305 253 246 243 247 251 251 254 256 257 257 254 249 246 243 239 238 236 234 229 228 228 235 239 233 115 48 52 12 345 331 327 317 305 242 177
357 233 226 270 315 320 314 291 270 253 245 248 251 250 250 251 254 256 255 255 253 249 246 244 239 237 236 236 236 238 229 222 206 174 140 329 330 338 321 299 267 235 196
326 349 323 280 277 285 287 293 287 271 256 250 249 250 252 253 254 254 252 254 255 254 249 245 240 237 234 233 238 239 233 221 224 203 262 306 329 332 329 295 266 213 173
286 295 313 307 299 283 276 278 281 279 271 263 257 254 253 253 254 254 254 256 256 254 251 250 250 246 240 236 236 235 234 225 220 220 245 261 315 334 328 265 226 190 155
283 291 288 278 279 272 275 280 272 270 274 278 275 261 255 254 254 256 257 258 258 256 256 254 252 248 245 239 237 236 232 232 223 222 235 249 310 326 257 217 186 159 143
285 277 270 263 267 263 273 274 270 265 267 271 272 264 256 255 254 255 256 257 258 259 258 256 252 248 245 241 236 234 233 231 228 232 232 249 270 285 226 204 180 163 155
279 277 275 265 261 263 267 270 269 260 256 258 262 264 257 253 253 254 256 257 260 256 255 254 249 244 239 237 236 234 229 227 227 234 250 261 265 260 225 205 187 176 172
277 275 266 262 256 257 259 265 267 259 259 259 263 266 265 264 258 256 255 258 259 261 258 250 248 236 235 238 238 234 229 224 225 227 246 258 256 251 235 214 199 196 193
279 271 267 262 259 259 259 257 260 260 258 259 267 270 270 267 261 255 256 263 261 261 258 251 246 240 240 243 242 234 231 225 223 227 235 245 252 240 238 227 212 210 208
269 267 266 257 251 254 258 257 262 260 259 263 275 272 271 272 267 264 266 261 257 261 260 256 250 245 244 247 237 232 228 224 222 226 232 237 246 246 255 243 222 214 212
256 250 254 255 257 257 258 256 255 258 262 266 272 270 269 271 274 269 264 262 260 259 260 257 254 247 246 243 235 230 230 223 221 225 228 232 240 246 261 232 227 225 225
267 258 251 247 251 255 255 256 255 258 261 265 264 268 266 264 264 263 264 263 256 253 253 254 256 253 247 240 238 235 229 228 221 224 226 230 233 246 245 220 222 227 232
270 261 260 257 255 258 252 250 253 256 260 265 262 258 261 267 269 269 267 266 261 254 251 252 252 252 249 233 234 232 227 229 223 222 225 228 230 235 233 217 225 238 239
269 264 257 261 264 264 262 257 254 250 252 258 259 259 259 259 262 265 267 269 269 258 264 252 245 250 252 234 231 229 227 232 223 222 224 225 227 231 230 228 231 235 233
272 263 259 259 262 262 262 259 255 248 244 251 254 254 256 252 256 262 266 275 281 287 281 280 257 237 246 247 226 229 226 233 224 222 223 225 227 228 231 233 231 232 232
279 267 262 260 261 258 254 251 248 244 243 246 251 254 252 255 258 262 264 262 262 269 277 285 272 262 234 257 249 245 231 230 226 223 223 224 227 227 230 233 234 234 230
292 282 269 268 261 255 249 246 245 245 245 246 250 252 252 253 254 259 259 258 261 263 270 272 267 272 246 264 274 236 231 231 227 224 224 223 228 227 228 235 234 238 230
293 283 274 273 270 261 254 251 249 249 247 251 250 252 250 251 249 253 253 258 258 254 255 259 265 268 244 265 268 261 246 233 227 221 223 222 226 227 231 235 238 230 230
285 285 285 285 275 268 263 254 251 251 251 247 250 252 252 250 251 250 253 253 256 254 256 258 262 267 261 266 258 261 233 220 217 216 221 221 224 228 231 238 235 223 225
290 293 293 291 288 282 274 257 259 250 247 247 246 250 243 247 248 251 255 255 253 259 261 264 265 264 265 270 253 264 253 228 217 209 216 218 224 228 233 236 228 223 220
280 282 282 279 275 275 275 266 248 251 246 245 246 246 235 242 241 243 253 255 259 261 264 265 266 259 276 282 258 283 240 227 222 216 217 218 216 221 226 218 222 223 218
264 263 262 259 261 261 257 254 257 255 259 264 256 250 246 244 245 243 243 251 254 264 266 260 259 248 268 246 264 269 252 232 221 222 231 229 235 223 218 214 218 221 220
Height
3161 3162 3162 3162 3162 3163 3164 3165 3166 3167 3169 3170 3172 3173 3175 3177 3178 3179 3180 3180 3181 3182 3184 3185 3186 3187 3187 3187 3187 3187 3187 3187 3187 3186 3186 3185 3185 3185 3184 3184 3184 3184 3184
3160 3161 3162 3162 3161 3162 3163 3164 3165 3166 3168 3170 3171 3172 3174 3176 3178 3179 3179 3180 3181 3182 3184 3185 3186 3187 3187 3188 3187 3187 3187 3186 3186 3186 3186 3185 3185 3184 3184 3184 3185 3184 3184
3160 3161 3161 3161 3161 3161 3162 3162 3163 3165 3167 3168 3169 3171 3173 3175 3176 3177 3178 3179 3181 3182 3184 3185 3186 3186 3187 3187 3187 3187 3187 3187 3186 3186 3186 3185 3185 3184 3184 3184 3183 3183 3183
3160 3160 3161 3161 3161 3160 3161 3161 3162 3164 3165 3167 3168 3170 3172 3173 3174 3175 3176 3178 3180 3182 3183 3184 3185 3185 3186 3187 3187 3187 3187 3187 3186 3185 3185 3185 3185 3185 3185 3184 3183 3183 3183
3159 3160 3160 3160 3160 3160 3160 3161 3162 3163 3164 3166 3168 3169 3171 3171 3172 3173 3173 3175 3177 3179 3181 3182 3184 3185 3185 3186 3186 3186 3187 3187 3186 3185 3185 3185 3184 3184 3184 3184 3183 3182 3182
3158 3158 3159 3160 3160 3160 3159 3160 3161 3161 3163 3164 3166 3167 3168 3169 3170 3170 3171 3173 3174 3176 3178 3180 3181 3182 3184 3185 3185 3185 3186 3186 3185 3185 3184 3184 3184 3183 3182 3182 3181 3181 3181
3157 3157 3157 3158 3158 3158 3158 3159 3159 3159 3160 3161 3163 3164 3166 3167 3167 3166 3167 3169 3171 3173 3175 3176 3178 3179 3180 3182 3183 3184 3184 3184 3184 3183 3183 3182 3181 3181 3180 3180 3179 3179 3180
3154 3154 3154 3155 3156 3156 3157 3157 3157 3158 3158 3159 3160 3162 3163 3164 3164 3163 3165 3167 3168 3170 3171 3174 3176 3176 3178 3180 3180 3180 3181 3182 3182 3182 3181 3181 3180 3179 3179 3179 3179 3178 3179
3153 3153 3153 3153 3153 3154 3154 3155 3155 3155 3156 3157 3157 3158 3159 3161 3161 3162 3163 3164 3165 3166 3169 3171 3172 3174 3173 3175 3177 3178 3178 3179 3180 3180 3180 3179 3178 3177 3177 3178 3178 3178 3178
3153 3152 3152 3151 3151 3151 3151 3151 3151 3152 3153 3153 3154 3154 3155 3157 3158 3158 3159 3161 3162 3164 3165 3167 3169 3169 3170 3171 3173 3174 3176 3177 3177 3178 3177 3176 3176 3176 3176 3176 3176 3176 3177
3149 3149 3149 3149 3148 3148 3148 3148 3148 3148 3149 3150 3150 3150 3151 3151 3152 3154 3156 3158 3158 3158 3160 3162 3164 3165 3167 3167 3169 3170 3172 3174 3175 3176 3176 3175 3176 3175 3174 3174 3175 3175 3176
3144 3144 3144 3144 3144 3144 3144 3144 3144 3144 3144 3144 3145 3145 3146 3146 3147 3148 3149 3151 3154 3156 3155 3157 3158 3161 3162 3164 3165 3167 3168 3169 3171 3172 3173 3173 3174 3174 3173 3173 3173 3174 3174
3139 3138 3139 3139 3139 3139 3139 3139 3139 3139 3139 3140 3141 3141 3141 3141 3141 3142 3144 3147 3150 3149 3150 3151 3152 3155 3158 3159 3161 3162 3164 3165 3167 3168 3169 3170 3171 3172 3173 3172 3171 3171 3172
3132 3132 3132 3132 3132 3132 3133 3133 3133 3133 3134 3135 3135 3135 3135 3136 3136 3137 3140 3143 3143 3143 3143 3145 3148 3151 3153 3155 3155 3157 3159 3161 3163 3164 3166 3167 3168 3169 3170 3170 3170 3169 3170
3124 3125 3125 3124 3125 3125 3125 3126 3126 3127 3128 3129 3129 3130 3130 3129 3131 3132 3132 3134 3135 3136 3136 3137 3140 3143 3146 3149 3150 3151 3153 3155 3157 3159 3161 3162 3163 3165 3165 3167 3168 3168 3168
3119 3119 3118 3117 3118 3118 3119 3119 3120 3121 3121 3121 3121 3123 3123 3122 3123 3124 3125 3126 3126 3127 3127 3130 3132 3135 3139 3142 3143 3145 3147 3150 3151 3153 3155 3157 3158 3160 3161 3162 3164 3166 3166
3113 3113 3113 3113 3112 3112 3111 3110 3111 3113 3113 3114 3114 3114 3115 3115 3114 3117 3118 3118 3118 3119 3119 3123 3124 3126 3130 3131 3135 3138 3139 3143 3144 3146 3149 3151 3153 3155 3157 3158 3160 3163 3163
3105 3105 3105 3105 3104 3104 3103 3103 3102 3103 3102 3103 3104 3105 3105 3106 3107 3109 3110 3108 3110 3103 3092 3112 3104 3118 3119 3118 3125 3129 3132 3136 3136 3140 3143 3145 3147 3151 3152 3153 3155 3157 3159
3095 3095 3096 3095 3093 3094 3094 3093 3092 3092 3093 3096 3096 3096 3097 3099 3099 3098 3099 3100 3095 3091 3101 3103 3106 3101 3108 3111 3109 3119 3123 3127 3129 3131 3135 3138 3141 3145 3147 3148 3150 3152 3155
3082 3083 3083 3084 3084 3083 3081 3081 3081 3082 3084 3085 3087 3088 3089 3089 3090 3089 3090 3092 3093 3095 3096 3097 3096 3098 3095 3101 3107 3110 3110 3116 3120 3123 3126 3130 3134 3138 3141 3143 3145 3147 3150
3069 3072 3073 3072 3072 3072 3072 3071 3071 3071 3074 3075 3077 3079 3081 3080 3080 3081 3081 3083 3085 3088 3090 3090 3089 3090 3091 3094 3101 3096 3100 3106 3108 3113 3118 3122 3126 3130 3134 3136 3139 3142 3144
3060 3059 3058 3059 3061 3063 3064 3062 3062 3062 3062 3064 3066 3068 3069 3071 3071 3071 3071 3074 3077 3078 3082 3082 3083 3083 3084 3087 3091 3093 3093 3096 3097 3100 3110 3113 3117 3122 3126 3129 3131 3135 3139
3052 3051 3050 3049 3048 3051 3053 3053 3054 3053 3051 3051 3053 3055 3056 3059 3061 3062 3060 3061 3065 3067 3069 3071 3073 3072 3074 3077 3076 3079 3078 3083 3085 3092 3096 3102 3107 3113 3117 3119 3123 3126 3131
3048 3047 3046 3046 3045 3044 3044 3044 3043 3043 3042 3041 3044 3043 3043 3045 3048 3050 3050 3050 3053 3056 3058 3060 3060 3062 3065 3065 3064 3063 3064 3067 3069 3078 3086 3091 3098 3103 3108 3111 3115 3119 3124
3042 3040 3039 3038 3037 3035 3034 3034 3034 3031 3035 3030 3029 3030 3029 3034 3035 3038 3039 3041 3041 3044 3046 3048 3050 3055 3053 3052 3057 3056 3057 3059 3067 3068 3073 3078 3085 3092 3100 3101 3107 3111 3117
3034 3032 3030 3027 3027 3027 3026 3024 3024 3023 3023 3020 3019 3019 3019 3021 3021 3025 3027 3028 3030 3032 3036 3040 3041 3043 3042 3046 3047 3048 3050 3052 3055 3062 3068 3073 3076 3077 3091 3094 3098 3103 3109